DW2144 Weather Reports


Display with metric or nautical units.
time (UTC)temp
F
wind
direction
speed
MPH
gust
MPH
rain 1hr
in
rain 24hr
in
rain mn
in
humidity
%
barometer
mb
20260906223010 81 51 0.0 3.0 0.00 0.00 0.00 38 1011.0
20260906221508 80 294 0.0 1.0 0.00 0.00 0.00 38 1011.2
20260906220005 80 298 0.0 2.0 0.00 0.00 0.00 40 1011.2
20260906214508 80 329 1.0 4.0 0.00 0.00 0.00 39 1011.4
20260906213003 80 297 0.0 1.0 0.00 0.00 0.00 38 1011.3
20260906211604 79 296 0.0 1.0 0.00 0.00 0.00 40 1011.6
20260906210058 79 296 1.0 4.0 0.00 0.00 0.00 39 1011.8
20260906204618 78 355 0.0 2.0 0.00 0.00 0.00 38 1011.8
20260906203052 77 355 0.0 1.0 0.00 0.00 0.00 44 1011.9
20260906201613 76 355 0.0 3.0 0.00 0.00 0.00 44 1012.0
20260906200046 75 311 0.0 3.0 0.00 0.00 0.00 47 1012.2
20260906194552 73 298 0.0 3.0 0.00 0.00 0.00 51 1012.5
20260906193042 72 360 0.0 1.0 0.00 0.00 0.00 52 1012.7
20260906191534 71 360 0.0 2.0 0.00 0.00 0.00 56 1013.0
20260906190033 70 360 0.0 1.0 0.00 0.00 0.00 59 1013.1
20260906184524 68 360 0.0 0.0 0.00 0.00 0.00 64 1013.2
20260906183021 66 360 0.0 1.0 0.00 0.00 0.00 68 1013.5
20260906181534 64 360 0.0 2.0 0.00 0.00 0.00 73 1013.6
20260906180012 62 360 0.0 2.0 0.00 0.00 0.00 78 1013.6
20260906174507 60 360 0.0 0.0 0.00 0.00 0.00 82 1013.9
20260906173005 59 360 0.0 1.0 0.00 0.00 0.00 85 1013.9
20260906171603 57 360 0.0 1.0 0.00 0.00 0.00 86 1013.9
20260906170058 56 360 0.0 0.0 0.00 0.00 0.00 86 1013.9
20260906164552 54 360 0.0 1.0 0.00 0.00 0.00 85 1014.1
20260906163053 52 360 0.0 0.0 0.00 0.00 0.00 82 1014.2
20260906161551 51 360 0.0 0.0 0.00 0.00 0.00 83 1014.3
20260906160050 51 360 0.0 0.0 0.00 0.00 0.00 83 1014.2
20260906154550 50 360 0.0 0.0 0.00 0.00 0.00 84 1014.3
20260906153106 49 360 0.0 0.0 0.00 0.00 0.00 84 1014.3
20260906151549 48 360 0.0 0.0 0.00 0.00 0.00 86 1014.3
20260906150047 48 360 0.0 0.0 0.00 0.00 0.00 86 1014.3
20260906144548 47 360 0.0 0.0 0.00 0.00 0.00 86 1014.0
20260906143043 47 360 0.0 0.0 0.00 0.00 0.00 87 1014.0
20260906141542 47 360 0.0 0.0 0.00 0.00 0.00 87 1013.8
20260906140048 48 360 0.0 0.0 0.00 0.00 0.00 87 1013.6
20260906134538 48 360 0.0 0.0 0.00 0.00 0.00 86 1013.6
20260906133048 48 360 0.0 0.0 0.00 0.00 0.00 87 1013.5
20260906131536 49 360 0.0 0.0 0.00 0.00 0.00 86 1013.3
20260906130036 49 360 0.0 0.0 0.00 0.00 0.00 86 1013.2
20260906124532 49 360 0.0 0.0 0.00 0.00 0.00 86 1013.1
20260906123038 49 360 0.0 0.0 0.00 0.00 0.00 86 1013.0
20260906121541 49 360 0.0 0.0 0.00 0.00 0.00 86 1013.0
20260906120029 49 360 0.0 0.0 0.00 0.00 0.00 86 1013.0
20260906114532 49 360 0.0 0.0 0.00 0.00 0.00 86 1013.0
20260906113026 49 360 0.0 0.0 0.00 0.00 0.00 86 1013.0
20260906111526 49 360 0.0 0.0 0.00 0.00 0.00 86 1012.9
20260906110024 49 360 0.0 0.0 0.00 0.00 0.00 86 1012.8
20260906104523 49 360 0.0 0.0 0.00 0.00 0.00 86 1012.8
20260906103022 49 360 0.0 0.0 0.00 0.00 0.00 86 1012.9
20260906101521 50 360 0.0 0.0 0.00 0.00 0.00 86 1012.8
20260906100019 50 360 0.0 0.0 0.00 0.00 0.00 86 1012.8
20260906094518 50 360 0.0 0.0 0.00 0.00 0.00 86 1013.0
20260906093032 50 360 0.0 0.0 0.00 0.00 0.00 85 1012.9
20260906091521 51 360 0.0 0.0 0.00 0.00 0.00 85 1013.0
20260906090016 51 360 0.0 0.0 0.00 0.00 0.00 85 1013.0
20260906084512 51 360 0.0 0.0 0.00 0.00 0.00 85 1013.0
20260906083011 52 360 0.0 0.0 0.00 0.00 0.00 85 1012.9
20260906081514 52 360 0.0 0.0 0.00 0.00 0.00 85 1013.0
20260906080007 52 360 0.0 0.0 0.00 0.00 0.00 85 1013.0
20260906074506 53 360 0.0 0.0 0.00 0.00 0.00 84 1013.0
20260906073006 53 360 0.0 0.0 0.00 0.00 0.00 84 1013.0
20260906071502 53 360 0.0 0.0 0.00 0.00 0.00 84 1012.9
20260906070129 54 360 0.0 0.0 0.00 0.00 0.00 83 1012.9
20260906070001 54 360 0.0 0.0 0.00 0.00 0.00 83 1013.0
20260906064559 54 360 0.0 0.0 0.00 0.00 0.00 82 1012.9
20260906063058 54 360 0.0 0.0 0.00 0.00 0.00 82 1012.9
20260906061629 55 360 0.0 0.0 0.00 0.00 0.00 81 1012.8
20260906060057 55 360 0.0 0.0 0.00 0.00 0.00 79 1012.8
20260906054557 56 360 0.0 0.0 0.00 0.00 0.00 79 1012.7
20260906053058 56 360 0.0 0.0 0.00 0.00 0.00 78 1012.7
20260906051556 56 360 0.0 0.0 0.00 0.00 0.00 77 1012.8
20260906050109 57 360 0.0 0.0 0.00 0.00 0.00 75 1012.8
20260906044555 58 360 0.0 0.0 0.00 0.00 0.00 74 1012.8
20260906043107 58 360 0.0 0.0 0.00 0.00 0.00 72 1012.8
20260906041553 59 360 0.0 0.0 0.00 0.00 0.00 70 1012.5
20260906040110 61 360 0.0 0.0 0.00 0.00 0.00 68 1012.4
20260906034552 62 360 0.0 0.0 0.00 0.00 0.00 67 1012.4
20260906033053 63 360 0.0 0.0 0.00 0.00 0.00 65 1012.2
20260906031551 65 360 0.0 0.0 0.00 0.00 0.00 63 1012.1
20260906030052 66 360 0.0 0.0 0.00 0.00 0.00 60 1012.1
20260906024550 68 360 0.0 0.0 0.00 0.00 0.00 59 1012.1
20260906023105 69 360 0.0 0.0 0.00 0.00 0.00 56 1012.0
20260906021549 70 360 0.0 0.0 0.00 0.00 0.00 52 1012.0
20260906020048 72 360 0.0 1.0 0.00 0.00 0.00 49 1012.0
20260906014556 73 360 0.0 0.0 0.00 0.00 0.00 45 1011.9
20260906013046 74 360 0.0 1.0 0.00 0.00 0.00 45 1011.8
20260906011553 74 360 0.0 1.0 0.00 0.00 0.00 42 1011.8
20260906010045 75 360 0.0 2.0 0.00 0.00 0.00 38 1011.8
20260906004544 75 360 0.0 2.0 0.00 0.00 0.00 36 1011.8
20260906003049 75 360 0.0 4.0 0.00 0.00 0.00 35 1011.8
20260906001544 75 335 0.0 3.0 0.00 0.00 0.00 37 1011.8
20260906000043 76 10 0.0 3.0 0.00 0.00 0.00 37 1011.8
20260905234552 76 42 0.0 3.0 0.00 0.00 0.00 36 1011.8
20260905233042 76 49 0.0 3.0 0.00 0.00 0.00 37 1011.8
20260905231540 77 5 0.0 3.0 0.00 0.00 0.00 39 1011.8
20260905230042 77 5 0.0 3.0 0.00 0.00 0.00 37 1011.9
20260905224539 78 32 0.0 3.0 0.00 0.00 0.00 39 1012.1